Regional Weather Roundup
Issued by NWS

Home | Current Version | Previous Version | Text Only | Print | Product List | Glossary Off
Versions: 1 2 3 4 5 6 7 8 9 10 11 12 13 14 15 16 17 18 19 20 21 22 23 24 25 26 27 28 29 30 31 32 33 34 35 36 37 38 39 40 41 42 43 44 45 46 47 48 49 50

000
ASUS45 KTFX 300804
RWRMT
MONTANA HOURLY WEATHER ROUNDUP
NATIONAL WEATHER SERVICE GREAT FALLS MT
204 AM MDT MON MAR 30 2015

NOTE: "FAIR" INDICATES FEW OR NO CLOUDS BELOW 12000 FEET WITH NO
SIGNIFICANT WEATHER AND/OR OBSTRUCTIONS TO VISIBILITY.

* THESE STATIONS ARE NOT UNDER NWS QUALITY CONTROL. THEY DO NOT
   REPORT WEATHER SUCH AS PRECIPITATION OR FOG.

MTZ001>007-043-300900-
WEST OF THE DIVIDE
CITY           SKY/WX    TMP DP  RH WIND       PRES   REMARKS
KALISPELL      PTCLDY    36  32  85 W3        30.12S
MISSOULA       MOCLDY    41  34  76 CALM      30.17S
BUTTE          MOCLDY    32  27  82 CALM      30.19F
MULLAN PASS    PTCLDY    37  27  67 SW8       30.16S WCI  31
* ESSEX        N/A       38  33  82 NW1        N/A
* LINCOLN      N/A       46  30  54 SW4G15     N/A
* LOOKOUT PASS N/A       38  31  76 N/A        N/A
* POLSON       N/A       44  34  68 SE1        N/A
* RONAN APT    PTCLDY    41  36  82 N/A        N/A
* SEELEY LAKE  N/A       35  30  82 SE1        N/A
* THOMP F APT  PTCLDY    38  19  46 NE5        N/A   WCI  34
$$

MTZ008-052>055-300900-
SOUTHWEST MONTANA
CITY           SKY/WX    TMP DP  RH WIND       PRES   REMARKS
BOZEMAN        CLOUDY    39  28  65 S8        30.15F WCI  33
DILLON         CLOUDY    45  25  45 SW14      30.17R
* W YELLOWSTON MOCLDY    28  19  69 N/A        N/A
* THREE FORKS  MOCLDY    52  28  40 N/A        N/A
* TWIN BRIDGES MOCLDY    37  21  52 E5         N/A   WCI  33
* BOULDER HILL N/A       40  22  49 SW3        N/A
* HOMESTAKE PS N/A       38  25  60 W4         N/A
* MONIDA PASS  N/A       31  18  59 SW2        N/A
* RAYNOLDS PAS N/A       34  23  64 SW7        N/A   WCI  28
* WHITEHALL    N/A       42  26  53 N2         N/A
* WISE RIVER   N/A       33  25  72 W4         N/A
$$

MTZ009>010-012-014-046-048-049-054-300900-
EAST SLOPES AND CENTRAL MONTANA
CITY           SKY/WX    TMP DP  RH WIND       PRES   REMARKS
CUT BANK       CLOUDY    46  28  50 W12       30.02R
GREAT FALLS    CLOUDY    50  30  46 SW15      30.04R
HELENA         CLOUDY    46  28  50 E3        30.13S
MALMSTROM AFB  CLOUDY    52  30  43 SW21G29   30.04R
* DEARBORN     N/A       55  31  40 SE13G26    N/A
* EAST GLACIER N/A       45  28  51 W17G26     N/A
* MONARCH      N/A       45  21  38 SW11       N/A
* PENDROY      N/A       41  28  60 W1         N/A
* ROGERS PASS  N/A       43  29  58 SE12G20    N/A
* SAINT MARY   N/A       45  29  54 S10G27     N/A
$$

MTZ011-013-016-021-035-040-045-047-050-051-300900-
NORTH CENTRAL MONTANA
CITY           SKY/WX    TMP DP  RH WIND       PRES   REMARKS
HAVRE          CLOUDY    48  32  54 SW18      29.95S
LEWISTOWN      CLOUDY    43  30  60 SW6       30.02S
* N BAR RANCH  CLEAR     48  27  44 W9        30.02R
* MALTA APT    CLOUDY    43  30  60 N/A        N/A
* CHESTER      N/A       49  30  48 W12G18     N/A
* DENTON       N/A       49  29  46 W12G17     N/A
* GEYSER       N/A       49  24  38 W16        N/A
* JUDITH GAP   N/A       51  23  33 W11G17     N/A
* LOMA         N/A       52  31  45 SW14G22    N/A
$$

MTZ017>020-022>027-061-062-300900-
NORTHEAST MONTANA
CITY           SKY/WX    TMP DP  RH WIND       PRES   REMARKS
GLASGOW        CLOUDY    46  30  54 W12       29.88S
GLENDIVE       CLOUDY    43  30  60 SW12      29.91S
JORDAN         CLOUDY    45  34  65 W9        29.94S
SIDNEY         MOCLDY    39  34  82 CALM      29.87F
WOLF POINT     CLOUDY    43  32  65 CALM      29.87F
* BEAVER HILL  N/A       45  28  51 S15        N/A
* CIRCLE       N/A       45  33  63 N/A        N/A
* LINDSAY DVD  N/A       51  29  43 W22G30     N/A
* NAVAJO       N/A       44  32  63 W18        N/A
* SACO         N/A       49  33  54 W12G18     N/A
$$

MTZ028>042-056>058-300900-
SOUTHCENTRAL AND SOUTHEAST MONTANA
CITY           SKY/WX    TMP DP  RH WIND       PRES   REMARKS
BAKER          MOCLDY    37  28  70 NW5       29.95F WCI  33
BILLINGS       PTCLDY    48  23  37 SW9       30.03S
LIVINGSTON     MOCLDY    50  25  38 W20       30.10R
MILES CITY     MOCLDY    39  28  65 CALM      29.97R
* LAUREL APT   PTCLDY    43  21  42 N/A        N/A
* ROUNDUP APT  MOCLDY    54  25  33 SW15G22    N/A
* ALZADA       N/A       37  26  64 W2         N/A
* HYSHAM       N/A       46  18  33 W3         N/A
* LAME DEER    N/A       48  19  32 W8         N/A
* REED POINT   N/A       51  25  36 NW4        N/A
* ROSCOE HILL  N/A       48  10  21 SE4        N/A
$$

REGIONAL REPORTS...DAKOTAS
CITY           SKY/WX    TMP DP  RH WIND       PRES   REMARKS
WILLISTON      CLOUDY    45  34  65 SW8       29.83F
DICKINSON      PTCLDY    39  28  65 SW6       29.89F WCI  35
CROSBY         MOCLDY    43  37  79 SW12      29.79F
WATFORD CITY   CLEAR     37  32  82 W6        29.83F WCI  32
BISMARCK       PTCLDY    36  30  79 CALM      29.92S
GRAND FORKS    CLEAR     32  27  82 W8        29.89S WCI  25
FARGO          CLEAR     34  27  76 SW7       29.92S WCI  28
BUFFALO SD     CLEAR     43  27  53 W8        29.91F
RAPID CITY     PTCLDY    36  27  70 CALM      30.00F
$$

REGIONAL REPORTS...WYOMING/IDAHO/WASHINGTON
CITY           SKY/WX    TMP DP  RH WIND       PRES   REMARKS
GILLETTE       PTCLDY    46  27  48 S15       30.04F
SHERIDAN       CLEAR     34  25  70 CALM      30.04S
CODY           MOCLDY    54  14  20 W10G21    30.09F
YELLOWSTONE LA MOCLDY    25  18  75 CALM      30.28S
SALMON         PTCLDY    37  28  70 CALM      30.20R
MULLAN PASS    PTCLDY    37  27  67 SW8       30.16S WCI  31
SAND POINT     CLEAR     37  37 100 W5        30.13F WCI  33
SPOKANE        MOCLDY    46  37  71 S8        30.12F

$$




USA.gov is the U.S. government's official web portal to all federal, state and local government web resources and services.